Weather in Bandar-e Mahshahr

Iran     30°33′42″N   49°11′16″E
temp.,
°C
wind,
m/s
gust,
m/s
humid.,
%
clouds,
%
prec.,
mm/h
press.,
hPa
HPBL,
m
17 august, wed
wed1701:30+35se44485 0.0 99770
04:30+34sse57531 0.0 997112
07:30+33s33570 0.0 99872
10:30+38ssw22340 0.0 998397
13:30+43sw44200 0.0 997892
16:30+44sw56160 0.0 995768
19:30+40ssw68250 0.0 995162
22:30+38ssw44300 0.0 99650
18 august, thu
thu1801:30+34sse68530 0.0 996150
04:30+33sse57620 0.0 995152
07:30+33s47640 0.0 996180
10:30+38s45340 0.0 997457
13:30+43s66200 0.0 996814
16:30+42s77180 0.0 994605
19:30+38s57280 0.0 994195
22:30+35sse33450 0.0 99539
19 august, fri
fri1901:30+34sse57460 0.0 995117
04:30+33se57530 0.0 995114
07:30+32se45574 0.0 996101
10:30+38s44345 0.0 997510
13:30+42ssw55220 0.0 996923
16:30+42ssw54180 0.0 995766
19:30+39s56240 0.0 995160
22:30+35s45510 0.0 996108
20 august, sat
sat2001:30+33sse58550 0.0 996163
04:30+32sse46640 0.0 996130
07:30+32se46610 0.0 998154
10:30+38sse55350 0.0 998501
13:30+40ssw65290 0.0 997727
16:30+42s33224 0.0 995704
19:30+38s663759 0.0 995212
22:30+35sse57525 0.0 996194
21 august, sun
sun2101:30+33sse58571 0.0 996178
04:30+32s45651 0.0 996136
07:30+32ese34630 0.0 998118
10:30+39se33290 0.0 998408
13:30+42ssw54250 0.0 997848
16:30+42s54240 0.0 995521
19:30+37s773810 0.0 996238
22:30+34s585310 0.0 998233